Powrót do katalogu

CZ-6A DEB

AktywnySSO
NORAD 54443·DEBRIS·🇨🇳 China

Wystrzelony Nov 11, 2022 z Taiyuan Satellite Launch Center

Loading…

Następne Przeloty (najbliższe 24 godziny)

TLE

ŚwieżeSource: Space-Track

Epoka: Sep 14, 2026, 12:11 UTC

1 54443U 22151FT  26257.50773473  .00000956  00000-0  44944-3 0  9997
2 54443  98.8069 279.4700 0017996  56.4549 303.8345 14.22327638198648

Śledź CZ-6A DEB w czasie rzeczywistym z AllMySat

Download on the App Store